IW5CI-13 Weather Reports


time (UTC)temp
C
wind
direction
speed
KPH
gust
KPH
rain 1hr
cm
rain 24hr
cm
rain mn
cm
humidity
%
barometer
mb
20260507184554 16 0.0 0.0 0.00 0.00 0.00 29 1013.5
20260507182548 17 0.0 0.0 0.00 0.00 0.00 28 1013.3
20260507180543 17 0.0 0.0 0.00 0.00 0.00 27 1013.3
20260507174538 18 0.0 0.0 0.00 0.00 0.00 25 1013.1
20260507172533 18 0.0 0.0 0.00 0.00 0.00 24 1012.7
20260507170528 18 0.0 0.0 0.00 0.00 0.00 24 1012.7
20260507164522 18 0.0 0.0 0.00 0.00 0.00 23 1012.7
20260507162517 18 0.0 0.0 0.00 0.00 0.00 24 1012.8
20260507160512 19 0.0 0.0 0.00 0.00 0.00 24 1012.6
20260507152502 19 0.0 0.0 0.00 0.00 0.00 23 1012.8
20260507144451 19 0.0 0.0 0.00 0.00 0.00 24 1013.1
20260507140441 18 0.0 0.0 0.00 0.00 0.00 24 1013.5
20260507134436 19 0.0 0.0 0.00 0.00 0.00 23 1013.6
20260507132431 19 0.0 0.0 0.00 0.00 0.00 23 1013.7
20260507130426 18 0.0 0.0 0.00 0.00 0.00 23 1013.9
20260507124420 19 0.0 0.0 0.00 0.00 0.00 22 1013.9
20260507122415 19 0.0 0.0 0.00 0.00 0.00 23 1014.0
20260507120410 18 0.0 0.0 0.00 0.00 0.00 24 1014.0
20260507114405 19 0.0 0.0 0.00 0.00 0.00 25 1014.3
20260507112400 19 0.0 0.0 0.00 0.00 0.00 25 1014.4
20260507104349 19 0.0 0.0 0.00 0.00 0.00 26 1014.8
20260507102344 18 0.0 0.0 0.00 0.00 0.00 28 1015.1
20260507100339 18 0.0 0.0 0.00 0.00 0.00 28 1015.2
20260507094334 19 0.0 0.0 0.00 0.00 0.00 28 1015.1
20260507092329 18 0.0 0.0 0.00 0.00 0.00 29 1015.3
20260507090324 17 0.0 0.0 0.00 0.00 0.00 30 1015.3
20260507084318 16 0.0 0.0 0.00 0.00 0.00 34 1015.5
20260507082313 15 0.0 0.0 0.00 0.00 0.00 36 1015.5
20260507080308 14 0.0 0.0 0.00 0.00 0.00 37 1015.3
20260507074303 13 0.0 0.0 0.00 0.00 0.00 37 1015.2
20260507072258 13 0.0 0.0 0.00 0.00 0.00 40 1015.2
20260507070252 12 0.0 0.0 0.00 0.00 0.00 41 1015.1
20260507064248 11 0.0 0.0 0.00 0.00 0.00 43 1015.2
20260507062242 11 0.0 0.0 0.00 0.00 0.00 43 1015.1
20260507060237 11 0.0 0.0 0.00 0.00 0.00 43 1015.1
20260507054232 11 0.0 0.0 0.00 0.00 0.00 43 1014.9
20260507052227 11 0.0 0.0 0.00 0.00 0.00 43 1014.7
20260507050222 10 0.0 0.0 0.00 0.00 0.00 45 1014.7
20260507044217 10 0.0 0.0 0.00 0.00 0.00 46 1014.5
20260507042211 11 0.0 0.0 0.00 0.00 0.00 45 1014.1
20260507040206 10 0.0 0.0 0.00 0.00 0.00 46 1014.1
20260507034201 11 0.0 0.0 0.00 0.00 0.00 46 1014.0
20260507032156 11 0.0 0.0 0.00 0.00 0.00 45 1014.0
20260507030144 11 0.0 0.0 0.00 0.00 0.00 45 1013.9
20260507024136 11 0.0 0.0 0.00 0.00 0.00 48 1013.9
20260507022130 11 0.0 0.0 0.00 0.00 0.00 46 1014.2
20260507020125 11 0.0 0.0 0.00 0.00 0.00 45 1013.9
20260507014119 11 0.0 0.0 0.00 0.00 0.00 46 1013.8
20260507012114 11 0.0 0.0 0.00 0.00 0.00 44 1013.9
20260507010108 11 0.0 0.0 0.00 0.00 0.00 46 1014.1
20260507004102 11 0.0 0.0 0.00 0.00 0.00 46 1013.9
20260507002057 12 0.0 0.0 0.00 0.00 0.00 45 1014.0
20260507000052 12 0.0 0.0 0.00 0.00 0.00 46 1014.0
20260506232038 12 0.0 0.0 0.00 0.00 0.00 45 1014.0
20260506230033 11 0.0 0.0 0.00 0.00 0.00 46 1014.2
20260506224028 12 0.0 0.0 0.00 0.00 0.00 44 1014.3
20260506222022 12 0.0 0.0 0.00 0.00 0.00 44 1014.1
20260506220017 12 0.0 0.0 0.00 0.00 0.00 45 1014.3
20260506214012 12 0.0 0.0 0.00 0.00 0.00 45 1014.2
20260506212007 13 0.0 0.0 0.00 0.00 0.00 43 1014.1
20260506210001 12 0.0 0.0 0.00 0.00 0.00 45 1013.8
20260506203956 13 0.0 0.0 0.00 0.00 0.00 45 1013.7
20260506201951 13 0.0 0.0 0.00 0.00 0.00 44 1013.6
20260506195945 12 0.0 0.0 0.00 0.00 0.00 46 1013.4
20260506193940 13 0.0 0.0 0.00 0.00 0.00 46 1013.1
20260506191934 13 0.0 0.0 0.00 0.00 0.00 47 1012.8